TimeCDT,TemperatureF,Dew PointF,Humidity,Sea Level PressureIn,VisibilityMPH,Wind Direction,Wind SpeedMPH,Gust SpeedMPH,PrecipitationIn,Events,Conditions,WindDirDegrees,DateUTC
12:15 AM,39.2,37.4,93,30.21,-9999.0,NW,10.4,-,N/A,,Unknown,320,2014-05-01 05:15:00
12:35 AM,39.2,37.4,93,30.21,-9999.0,NW,10.4,-,N/A,,Unknown,320,2014-05-01 05:35:00
12:55 AM,37.4,37.4,100,30.21,-9999.0,NW,11.5,-,N/A,,Unknown,320,2014-05-01 05:55:00
1:15 AM,37.4,37.4,100,30.21,-9999.0,NW,11.5,-,N/A,,Unknown,320,2014-05-01 06:15:00
1:35 AM,37.4,37.4,100,30.21,-9999.0,NW,10.4,-,N/A,,Unknown,320,2014-05-01 06:35:00
1:55 AM,35.6,35.6,100,30.20,-9999.0,NW,9.2,-,N/A,,Unknown,320,2014-05-01 06:55:00
2:15 AM,35.6,35.6,100,30.20,-9999.0,NW,9.2,-,N/A,,Unknown,310,2014-05-01 07:15:00
2:35 AM,33.8,33.8,100,30.20,-9999.0,NW,9.2,-,N/A,,Unknown,310,2014-05-01 07:35:00
2:55 AM,32.0,32.0,100,30.20,-9999.0,NW,9.2,-,N/A,,Unknown,310,2014-05-01 07:55:00
3:15 AM,33.8,33.8,100,30.19,-9999.0,NW,9.2,-,N/A,,Unknown,320,2014-05-01 08:15:00
3:35 AM,32.0,32.0,100,30.19,-9999.0,NW,9.2,-,N/A,,Unknown,310,2014-05-01 08:35:00
3:55 AM,32.0,32.0,100,30.19,-9999.0,NW,9.2,-,N/A,,Unknown,310,2014-05-01 08:55:00
4:15 AM,32.0,32.0,100,30.19,-9999.0,NW,10.4,-,N/A,,Unknown,310,2014-05-01 09:15:00
4:35 AM,32.0,32.0,100,30.19,-9999.0,WNW,10.4,-,N/A,,Unknown,300,2014-05-01 09:35:00
4:55 AM,32.0,32.0,100,30.18,-9999.0,WNW,10.4,-,N/A,,Unknown,300,2014-05-01 09:55:00
5:15 AM,32.0,32.0,100,30.18,-9999.0,WNW,10.4,-,N/A,,Unknown,300,2014-05-01 10:15:00
5:35 AM,32.0,32.0,100,30.18,-9999.0,WNW,9.2,-,N/A,,Unknown,300,2014-05-01 10:35:00
5:55 AM,32.0,32.0,100,30.18,-9999.0,WNW,10.4,-,N/A,,Unknown,300,2014-05-01 10:55:00
6:15 AM,32.0,32.0,100,30.18,-9999.0,WNW,11.5,-,N/A,,Unknown,300,2014-05-01 11:15:00
6:35 AM,32.0,32.0,100,30.18,-9999.0,NW,11.5,-,N/A,,Unknown,310,2014-05-01 11:35:00
6:55 AM,32.0,32.0,100,30.18,-9999.0,WNW,10.4,-,N/A,,Unknown,300,2014-05-01 11:55:00
7:15 AM,32.0,32.0,100,30.18,-9999.0,NW,9.2,-,N/A,,Unknown,310,2014-05-01 12:15:00
7:35 AM,33.8,33.8,100,30.18,-9999.0,WNW,10.4,-,N/A,,Unknown,300,2014-05-01 12:35:00
7:55 AM,35.6,35.6,100,30.18,-9999.0,NW,10.4,-,N/A,,Unknown,310,2014-05-01 12:55:00
8:15 AM,37.4,35.6,93,30.18,-9999.0,NW,11.5,-,N/A,,Unknown,310,2014-05-01 13:15:00
8:35 AM,39.2,37.4,93,30.18,-9999.0,NW,11.5,-,N/A,,Unknown,320,2014-05-01 13:35:00
8:55 AM,39.2,37.4,93,30.18,-9999.0,NW,10.4,-,N/A,,Unknown,320,2014-05-01 13:55:00
9:15 AM,41.0,37.4,87,30.18,-9999.0,NNW,11.5,-,N/A,,Unknown,330,2014-05-01 14:15:00
9:55 AM,44.6,39.2,81,30.17,-9999.0,NNW,9.2,-,N/A,,Clear,330,2014-05-01 14:55:00
10:15 AM,46.4,39.2,76,30.17,-9999.0,NW,8.1,-,N/A,,Clear,320,2014-05-01 15:15:00
10:35 AM,48.2,37.4,66,30.15,-9999.0,NW,6.9,-,N/A,,Clear,320,2014-05-01 15:35:00
10:55 AM,50.0,37.4,62,30.15,-9999.0,NW,9.2,-,N/A,,Clear,320,2014-05-01 15:55:00
11:15 AM,51.8,32.0,47,30.14,-9999.0,North,9.2,-,N/A,,Clear,350,2014-05-01 16:15:00
11:35 AM,53.6,33.8,47,30.13,-9999.0,North,8.1,-,N/A,,Clear,350,2014-05-01 16:35:00
11:55 AM,53.6,33.8,47,30.12,-9999.0,NNW,10.4,-,N/A,,Clear,340,2014-05-01 16:55:00
12:15 PM,55.4,35.6,47,30.11,-9999.0,NNW,4.6,-,N/A,,Clear,330,2014-05-01 17:15:00
12:35 PM,55.4,35.6,47,30.10,-9999.0,NW,11.5,-,N/A,,Clear,320,2014-05-01 17:35:00
12:55 PM,55.4,35.6,47,30.09,-9999.0,NW,11.5,-,N/A,,Clear,310,2014-05-01 17:55:00
1:15 PM,57.2,37.4,48,30.08,-9999.0,NNW,8.1,17.3,N/A,,Clear,340,2014-05-01 18:15:00
1:35 PM,59.0,37.4,45,30.06,-9999.0,NW,10.4,20.7,N/A,,Clear,320,2014-05-01 18:35:00
1:55 PM,59.0,35.6,42,30.04,-9999.0,NNW,10.4,17.3,N/A,,Clear,330,2014-05-01 18:55:00
2:15 PM,59.0,35.6,42,30.03,-9999.0,WNW,9.2,19.6,N/A,,Clear,290,2014-05-01 19:15:00
2:35 PM,60.8,35.6,39,30.02,-9999.0,West,11.5,25.3,N/A,,Clear,280,2014-05-01 19:35:00
2:55 PM,62.6,32.0,32,30.01,-9999.0,West,12.7,18.4,N/A,,Clear,280,2014-05-01 19:55:00
3:15 PM,62.6,32.0,32,30.00,-9999.0,West,11.5,21.9,N/A,,Clear,280,2014-05-01 20:15:00
3:35 PM,64.4,30.2,28,29.99,-9999.0,WNW,15.0,20.7,N/A,,Partly Cloudy,290,2014-05-01 20:35:00
3:55 PM,64.4,32.0,30,29.98,-9999.0,WNW,13.8,26.5,N/A,,Mostly Cloudy,300,2014-05-01 20:55:00
4:15 PM,62.6,32.0,32,29.96,-9999.0,WNW,17.3,23.0,N/A,,Partly Cloudy,300,2014-05-01 21:15:00
4:35 PM,64.4,32.0,30,29.95,-9999.0,WNW,19.6,25.3,N/A,,Scattered Clouds,300,2014-05-01 21:35:00
4:55 PM,64.4,32.0,30,29.93,-9999.0,West,18.4,-,N/A,,Mostly Cloudy,280,2014-05-01 21:55:00
5:15 PM,66.2,32.0,28,29.92,-9999.0,WNW,16.1,21.9,N/A,,Mostly Cloudy,290,2014-05-01 22:15:00
5:35 PM,64.4,32.0,30,29.91,-9999.0,West,15.0,19.6,N/A,,Scattered Clouds,280,2014-05-01 22:35:00
5:55 PM,62.6,32.0,32,29.91,-9999.0,NNW,18.4,27.6,N/A,,Scattered Clouds,330,2014-05-01 22:55:00
6:15 PM,64.4,32.0,30,29.89,-9999.0,West,13.8,18.4,N/A,,Mostly Cloudy,280,2014-05-01 23:15:00
6:35 PM,62.6,33.8,34,29.89,-9999.0,WNW,10.4,-,N/A,,Mostly Cloudy,290,2014-05-01 23:35:00
6:55 PM,64.4,32.0,30,29.87,-9999.0,West,11.5,-,N/A,,Scattered Clouds,270,2014-05-01 23:55:00
7:15 PM,64.4,33.8,32,29.85,-9999.0,West,9.2,-,N/A,,Mostly Cloudy,260,2014-05-02 00:15:00
7:35 PM,64.4,33.8,32,29.84,-9999.0,WSW,8.1,-,N/A,,Mostly Cloudy,250,2014-05-02 00:35:00
7:55 PM,62.6,37.4,39,29.82,-9999.0,SW,10.4,-,N/A,,Overcast,230,2014-05-02 00:55:00
8:15 PM,59.0,39.2,48,29.81,-9999.0,SW,10.4,-,N/A,,Mostly Cloudy,220,2014-05-02 01:15:00
8:35 PM,59.0,39.2,48,29.80,-9999.0,SW,11.5,-,N/A,,Overcast,230,2014-05-02 01:35:00
8:55 PM,57.2,39.2,51,29.79,-9999.0,SW,12.7,-,N/A,,Overcast,230,2014-05-02 01:55:00
9:15 PM,59.0,37.4,45,29.79,-9999.0,West,18.4,23.0,N/A,,Overcast,270,2014-05-02 02:15:00
9:35 PM,59.0,39.2,48,29.80,-9999.0,WNW,16.1,-,N/A,,Mostly Cloudy,300,2014-05-02 02:35:00
9:55 PM,59.0,41.0,51,29.80,-9999.0,WNW,17.3,-,N/A,,Scattered Clouds,300,2014-05-02 02:55:00
10:15 PM,57.2,41.0,55,29.80,-9999.0,WNW,17.3,-,N/A,,Clear,300,2014-05-02 03:15:00
10:35 PM,57.2,42.8,59,29.81,-9999.0,NW,17.3,23.0,N/A,,Clear,310,2014-05-02 03:35:00
10:55 PM,55.4,44.6,67,29.82,-9999.0,NW,16.1,-,N/A,,Clear,320,2014-05-02 03:55:00
11:15 PM,53.6,44.6,72,29.83,-9999.0,NNW,21.9,26.5,N/A,,Clear,340,2014-05-02 04:15:00
11:35 PM,51.8,44.6,76,29.85,-9999.0,NNW,19.6,29.9,N/A,,Clear,340,2014-05-02 04:35:00
11:55 PM,50.0,44.6,82,29.85,-9999.0,NNW,15.0,-,N/A,,Clear,340,2014-05-02 04:55:00